Location: Augustenthal
(51.7167°N, 10.2833°E)
Time: 09:10:32
(UTC+00:00)

Cosmos 1544 - Pass Details

Date: 18 May 2021
Orbit: 471 x 487 km, 82.5° (Epoch: 15 June)

Event Time Altitude Azimuth Distance (km) Brightness Sun altitude
Rises 20:00:18 0° 354° (N) 2,546 7.6 -6.9°
Reaches altitude 10° 20:02:29 10° 2° (N) 1,664 6.4 -7.1°
Maximum altitude 20:05:57 41° 74° (ENE) 708 3.7 -7.5°
Enters shadow 20:09:24 10° 146° (SSE) 1,658 5.1 -7.8°
